Kokomo, IN

7:37 PM EST on February 25, 2017 (GMT -0500)
Kokomo Municipal

Weather History for KOKK - February, 2013

Change the Weather History Date:

Sunday, February 10, 2013

  Actual Average (KGUS) Record (KGUS)
Temperature  
Mean Temperature 40 °F -  
Max Temperature 48 °F 34 °F 60 °F (1999)
Min Temperature 33 °F 22 °F -13 °F (2011)
Degree Days  
Heating Degree Days 24    
Moisture  
Dew Point 35 °F    
Average Humidity 81    
Maximum Humidity 100    
Minimum Humidity 70    
Precipitation  
Precipitation 0.07 in - - ()
Sea Level Pressure  
Sea Level Pressure 29.89 in    
Wind  
Wind Speed 14 mph (SSE)    
Max Wind Speed 26 mph    
Max Gust Speed 32 mph    
Visibility 10 miles    
Events      
Averages and records for this station are not official NWS values.
T = Trace of Precipitation, MM = Missing Value Source: NWS Daily Summary

Daily Weather History Graph

Daily Weather History Graph

Search for Another Location

Airport or City:

Trip Planner

Search our weather history database for the weather conditions in past years. The results will help you decide how hot, cold, wet, or windy it might be!

Date:

Astronomy

Feb. 10, 2013 Rise Set
Actual Time 6:43 AM CST 5:13 PM CST
Civil Twilight 6:15 AM CST 5:41 PM CST
Nautical Twilight 5:43 AM CST 6:14 PM CST
Astronomical Twilight 5:11 AM CST 6:45 PM CST
Moon 6:32 AM CST (2/10) 6:04 PM CST (2/10)
Length of Visible Light 11h 26m
Length of Day
10h 29m
New Moon, 0% of the Moon is Illuminated
Feb 10
New Moon
Feb 17
First Quarter
Feb 25
Full
Mar 4
Last Quarter
Mar 11
New

Hourly Weather History & Observations

Time (CST) Temp. Windchill Dew Point Humidity Pressure Visibility Wind Dir Wind Speed Gust Speed Precip Events Conditions
12:15 AM 33.8 °F 24.3 °F 24.8 °F 70% 30.13 in 10.0 mi SE 13.8 mph - N/A   Clear
12:35 AM 33.8 °F 25.8 °F 24.8 °F 70% 30.13 in 10.0 mi SE 10.4 mph - N/A   Clear
12:55 AM 33.8 °F 25.3 °F 24.8 °F 70% 30.12 in 10.0 mi SSE 11.5 mph - N/A   Clear
1:15 AM 33.8 °F 24.8 °F 24.8 °F 70% 30.11 in 10.0 mi SE 12.7 mph - N/A   Clear
1:35 AM 33.8 °F 24.3 °F 24.8 °F 70% 30.11 in 10.0 mi SSE 13.8 mph - N/A   Clear
1:55 AM 33.8 °F 25.8 °F 24.8 °F 70% 30.12 in 10.0 mi SSE 10.4 mph - N/A   Clear
2:15 AM 33.8 °F 26.4 °F 24.8 °F 70% 30.13 in 10.0 mi SSE 9.2 mph - N/A   Clear
2:35 AM 33.8 °F 25.8 °F 24.8 °F 70% 30.13 in 10.0 mi South 10.4 mph - N/A   Clear
2:55 AM 33.8 °F 26.4 °F 24.8 °F 70% 30.13 in 10.0 mi South 9.2 mph - N/A   Clear
3:15 AM 33.8 °F 25.3 °F 24.8 °F 70% 30.12 in 10.0 mi South 11.5 mph - N/A   Clear
3:35 AM 33.8 °F 26.4 °F 26.6 °F 75% 30.10 in 9.0 mi SE 9.2 mph - N/A   Mostly Cloudy
3:55 AM 33.8 °F 27.0 °F 28.4 °F 81% 30.10 in 10.0 mi South 8.1 mph - N/A   Mostly Cloudy
4:15 AM 33.8 °F 25.3 °F 26.6 °F 75% 30.08 in 10.0 mi SSE 11.5 mph - N/A   Mostly Cloudy
4:35 AM 33.8 °F 25.3 °F 28.4 °F 81% 30.06 in 10.0 mi SE 11.5 mph - N/A   Mostly Cloudy
4:55 AM 33.8 °F 24.8 °F 28.4 °F 81% 30.09 in 10.0 mi South 12.7 mph - N/A   Mostly Cloudy
5:15 AM 33.8 °F 25.8 °F 28.4 °F 81% 30.07 in 10.0 mi SSE 10.4 mph - N/A   Mostly Cloudy
5:35 AM 33.8 °F 25.8 °F 26.6 °F 75% 30.08 in 10.0 mi South 10.4 mph - N/A   Overcast
5:55 AM 33.8 °F 27.7 °F 28.4 °F 81% 30.07 in 10.0 mi SSE 6.9 mph - N/A   Overcast
6:15 AM 33.8 °F 27.7 °F 28.4 °F 81% 30.08 in 10.0 mi South 6.9 mph - 0.01 in   Overcast
6:35 AM 33.8 °F 25.3 °F 28.4 °F 81% 30.05 in 10.0 mi SE 11.5 mph - 0.01 in   Overcast
6:55 AM 33.8 °F 24.8 °F 26.6 °F 75% 30.04 in 10.0 mi SE 12.7 mph - 0.01 in   Overcast
7:15 AM 33.8 °F 25.3 °F 28.4 °F 81% 30.02 in 10.0 mi SE 11.5 mph - N/A   Mostly Cloudy
7:35 AM 33.8 °F 24.8 °F 26.6 °F 75% 30.03 in 10.0 mi SSE 12.7 mph - N/A   Mostly Cloudy
7:55 AM 35.6 °F 26.6 °F 28.4 °F 75% 30.02 in 10.0 mi SSE 13.8 mph - N/A   Overcast
8:15 AM 35.6 °F 25.5 °F 26.6 °F 70% 30.04 in 10.0 mi SSE 17.3 mph 23.0 mph N/A   Overcast
8:35 AM 35.6 °F 26.6 °F 26.6 °F 70% 30.04 in 10.0 mi South 13.8 mph - N/A   Overcast
8:55 AM 35.6 °F 26.6 °F 28.4 °F 75% 30.03 in 10.0 mi South 13.8 mph - N/A   Overcast
9:15 AM 35.6 °F 26.6 °F 28.4 °F 75% 30.02 in 10.0 mi South 13.8 mph - N/A   Overcast
9:35 AM 35.6 °F 26.2 °F 30.2 °F 81% 30.00 in 10.0 mi SSE 15.0 mph - N/A   Overcast
9:55 AM 35.6 °F 26.2 °F 30.2 °F 81% 29.99 in 10.0 mi SSE 15.0 mph - N/A   Overcast
10:15 AM 37.4 °F 29.3 °F 32.0 °F 81% 29.96 in 10.0 mi SSE 12.7 mph - N/A   Overcast
10:35 AM 39.2 °F 31.2 °F 33.8 °F 81% 29.95 in 10.0 mi SSE 13.8 mph - N/A   Overcast
10:55 AM 41.0 °F 32.8 °F 35.6 °F 81% 29.93 in 10.0 mi SSE 16.1 mph 20.7 mph N/A   Overcast
11:15 AM 42.8 °F 35.4 °F 37.4 °F 81% 29.91 in 10.0 mi SSE 15.0 mph 19.6 mph N/A   Mostly Cloudy
11:35 AM 42.8 °F 35.1 °F 35.6 °F 76% 29.90 in 10.0 mi SSE 16.1 mph - N/A   Mostly Cloudy
11:55 AM 42.8 °F 35.4 °F 35.6 °F 76% 29.88 in 10.0 mi SSE 15.0 mph - N/A   Overcast
12:15 PM 44.6 °F 37.8 °F 37.4 °F 76% 29.87 in 10.0 mi SSE 15.0 mph 20.7 mph N/A   Scattered Clouds
12:35 PM 44.6 °F 38.1 °F 37.4 °F 76% 29.87 in 10.0 mi South 13.8 mph - N/A   Mostly Cloudy
12:55 PM 44.6 °F 38.4 °F 37.4 °F 76% 29.87 in 10.0 mi South 12.7 mph - N/A   Mostly Cloudy
1:15 PM 44.6 °F 37.8 °F 37.4 °F 76% 29.84 in 10.0 mi SSE 15.0 mph - N/A   Mostly Cloudy
1:35 PM 44.6 °F 38.4 °F 37.4 °F 76% 29.83 in 10.0 mi SSE 12.7 mph - N/A   Mostly Cloudy
1:55 PM 44.6 °F 37.4 °F 37.4 °F 76% 29.82 in 10.0 mi South 16.1 mph 21.9 mph 0.01 in   Mostly Cloudy
2:15 PM 44.6 °F 38.1 °F 37.4 °F 76% 29.81 in 10.0 mi SSE 13.8 mph - 0.02 in   Overcast
2:35 PM 44.6 °F 37.4 °F 37.4 °F 76% 29.78 in 10.0 mi SSE 16.1 mph - 0.04 in   Overcast
2:55 PM 42.8 °F 35.4 °F 39.2 °F 87% 29.76 in 10.0 mi SSE 15.0 mph - 0.05 in   Overcast
3:15 PM 44.6 °F 37.4 °F 39.2 °F 81% 29.77 in 10.0 mi South 16.1 mph 23.0 mph N/A   Overcast
3:35 PM 44.6 °F 36.4 °F 39.2 °F 81% 29.75 in 10.0 mi South 20.7 mph 26.5 mph N/A   Overcast
3:55 PM 44.6 °F 36.6 °F 39.2 °F 81% 29.72 in 10.0 mi SSE 19.6 mph 29.9 mph N/A   Overcast
4:15 PM 44.6 °F 36.6 °F 39.2 °F 81% 29.71 in 10.0 mi South 19.6 mph 31.1 mph N/A   Overcast
4:35 PM 44.6 °F 36.4 °F 39.2 °F 81% 29.69 in 10.0 mi SSE 20.7 mph 31.1 mph N/A   Mostly Cloudy
4:55 PM 46.4 °F 38.7 °F 39.2 °F 76% 29.70 in 10.0 mi South 20.7 mph 29.9 mph N/A   Mostly Cloudy
5:15 PM 46.4 °F 38.5 °F 39.2 °F 76% 29.69 in 10.0 mi South 21.9 mph 32.2 mph N/A   Scattered Clouds
5:35 PM 46.4 °F 37.9 °F 41.0 °F 81% 29.69 in 10.0 mi South 25.3 mph 31.1 mph N/A   Overcast
5:55 PM 46.4 °F 38.5 °F 42.8 °F 87% 29.69 in 10.0 mi South 21.9 mph 27.6 mph N/A   Overcast
6:15 PM 46.4 °F 37.7 °F 42.8 °F 87% 29.70 in 10.0 mi South 26.5 mph 31.1 mph N/A   Overcast
6:35 PM 48.2 °F - 42.8 °F 82% 29.69 in 10.0 mi South 26.5 mph 31.1 mph N/A   Overcast
6:55 PM 48.2 °F - 44.6 °F 87% 29.69 in 10.0 mi South 25.3 mph 32.2 mph N/A   Overcast
7:15 PM 48.2 °F - 44.6 °F 87% 29.69 in 9.0 mi South 21.9 mph 28.8 mph N/A   Overcast
7:35 PM 48.2 °F - 44.6 °F 87% 29.70 in 5.0 mi South 21.9 mph 28.8 mph N/A   Overcast
7:55 PM 46.4 °F 39.5 °F 44.6 °F 93% 29.70 in 5.0 mi South 17.3 mph 21.9 mph N/A   Overcast
8:15 PM 46.4 °F 40.4 °F 44.6 °F 93% 29.70 in 5.0 mi South 13.8 mph - N/A   Overcast
8:35 PM 46.4 °F 40.7 °F 46.4 °F 100% 29.70 in 8.0 mi South 12.7 mph 18.4 mph N/A   Overcast
8:55 PM 46.4 °F 39.8 °F 46.4 °F 100% 29.69 in 10.0 mi South 16.1 mph - N/A   Overcast
9:15 PM 46.4 °F 39.5 °F 44.6 °F 93% 29.67 in 10.0 mi South 17.3 mph - N/A   Overcast
9:35 PM 48.2 °F - 46.4 °F 93% 29.67 in 10.0 mi South 17.3 mph - N/A   Overcast
9:55 PM 48.2 °F - 46.4 °F 93% 29.66 in 10.0 mi South 17.3 mph 24.2 mph N/A   Mostly Cloudy
10:15 PM 48.2 °F - 46.4 °F 93% 29.66 in 10.0 mi South 17.3 mph 21.9 mph N/A   Mostly Cloudy
10:35 PM 48.2 °F - 46.4 °F 93% 29.66 in 10.0 mi South 17.3 mph 21.9 mph N/A   Overcast
10:55 PM 48.2 °F - 46.4 °F 93% 29.66 in 10.0 mi SSW 17.3 mph 26.5 mph N/A   Overcast
11:15 PM 48.2 °F - 46.4 °F 93% 29.65 in 10.0 mi SSW 18.4 mph - N/A   Overcast
11:35 PM 48.2 °F - 46.4 °F 93% 29.65 in 10.0 mi SSW 17.3 mph - N/A   Overcast
11:55 PM 48.2 °F - 46.4 °F 93% 29.65 in 10.0 mi SSW 18.4 mph - N/A   Overcast